Location: Sungai Dangang
(2.7500°N, 113.8333°E)
Time: 22:41:01
(UTC+00:00)

Centaur D AC-29 - Pass Details

Date: 16 May 2021
Orbit: 498 x 36340 km, 26.4° (Epoch: 15 June)

Event Time Altitude Azimuth Distance (km) Brightness Sun altitude
Exits shadow 21:23:04 - 302° (WNW) 2,381 3.7 -12.7°
Reaches altitude 10° 21:23:44 10° 303° (WNW) 2,070 3.4 -12.6°
Maximum altitude 21:27:41 79° 30° (NNE) 1,152 2.5 -11.6°
Drops below altitude 10° 21:45:56 10° 117° (ESE) 8,628 7.5 -7.4°
Sets 22:05:44 0° 117° (ESE) 15,138 8.8 -2.7°
